Tracking 18980 objects as of 18-Feb-2018
HD Live streaming from Space Station
objects crossing your sky now

INTELSAT 605

Track INTELSAT 605 now!
INTELSAT 605 is classified as:


NORAD ID: 21653
Int'l Code: 1991-055A
Perigee: 36,037.4 km
Apogee: 36,084.7 km
Inclination: 10.4 °
Period: 1,449.8 minutes
Semi major axis: 42432 km
RCS: 0.754 m2 (medium)
Launch date: August 14, 1991
Source: International Telecommunications Satellite Organization (ITSO)
Launch site: FRENCH GUIANA (FRGUI)

Inclined orbit; 64 C-band, 24 Ku-band; Broadcasting, business services, direct-to-home TV broadcasting, telecommunications, VSAT networks; Atlantic Ocean region.
aabbcc
Your satellite tracking list
Your tracking list is empty




NASA's NSSDC Master Catalog

Two Line Element Set (TLE):
1 21653U 91055A   18048.77435799  .00000010  00000-0  00000+0 0  9999
2 21653  10.4255  38.8714 0005575 251.5994 164.4932  0.99325659 96769
Source of the keplerian elements: AFSPC